AirNav   ATP
 
 951 users online  

AL43 Henley Ranch Airport
Geiger, Alabama, USA


FAA INFORMATION EFFECTIVE 04 JANUARY 2018

Location

FAA Identifier: AL43
Lat/Long: 32-54-30.4650N / 088-20-00.1200W
32-54.507750N / 088-20.002000W
32.9084625 / -88.3333667
(estimated)
Elevation: 200 ft. / 61 m (estimated)
Variation: 01E (1985)
From city: 4 miles NW of GEIGER, AL
Time zone: UTC -6 (UTC -5 during Daylight Saving Time)
Zip code: 35459

Airport Operations

Airport use: Private use. Permission required prior to landing
Activation date: 06/1983
Control tower: no
ARTCC: MEMPHIS CENTER
FSS: ANNISTON FLIGHT SERVICE STATION
Attendance: UNATNDD
Wind indicator: yes
Segmented circle: yes

Nearby radio navigation aids

VOR radial/distance  VOR name  Freq  Var
EWAr007/33.1KEWANEE VORTAC113.8004E
IGBr161/35.8BIGBEE VORTAC116.2004E
MEIr032/39.7MERIDIAN VORTAC117.0005E

Airport Services

Runway Information

Runway 10/28

Dimensions: 3000 x 50 ft. / 914 x 15 m
Surface: turf
RUNWAY 10  RUNWAY 28
Traffic pattern: leftleft

Airport Ownership and Management from official FAA records

Ownership: Privately-owned
Owner: MARK HENLEY
576 HENLEY DR.
EMELLE, AL 35459
Phone 205-601-9215
Manager: ALAN HENLEY
576 HENLEY DR
EMELLE, AL 35459
Phone 205-455-2405

Airport Operational Statistics

Aircraft based on the field: 9
Single engine airplanes: 7
Multi engine airplanes: 1
Helicopters: 1
    

Additional Remarks

CARETAKER - LOUIS WATT 205-601-9215.

Instrument Procedures

There are no published instrument procedures at AL43.

Some nearby airports with instrument procedures:

KAIV - George Downer Airport (14 nm NE)
KNMM - Meridian Naval Air Station (Mc Cain Field) (24 nm SW)
KNJW - Joe Williams Naval Outlying Field (26 nm W)
KDYA - Demopolis Regional Airport (33 nm SE)
3M8 - North Pickens Airport (33 nm NE)
 
Loc | Ops | Rwys | IFR | FBO | Links
Com | Nav | Svcs | Stats | Notes


 
Area around AL43 (Henley Ranch Airport)
 
Road maps at: MapQuest Bing Google
 
Aerial photo
No photo
 
Sectional chart

 
Airport distance calculator
Flying to Henley Ranch Airport? Find the distance to fly.

From to AL43

Sunrise and sunset
Times for 22-Jan-2018
 Local
(UTC-6)
 Zulu
(UTC)
Morning civil twilight06:2912:29
Sunrise06:5512:55
Sunset17:1523:15
Evening civil twilight17:4123:41

Current date and time
Zulu (UTC)  23-Jan-2018 01:00:57
Local (UTC-6)  22-Jan-2018 19:00:57
 
METAR
KNMM 
25nm SW 
222356Z 24006KT 10SM CLR 18/04 A2989 RMK AO2 SLP129 T01780044 10228 20178 53016
KDYA 
33nm SE 
230055Z AUTO 19005KT 10SM 17/14 A2989 RMK AO2 T01670135
KGTR 
35nm N 
222356Z 23005KT 10SM CLR 15/05 A2985 RMK AO2 SLP108 T01500050 10206 20133 53015
KMEI 
40nm SW 
222358Z 24005KT 10SM CLR 15/07 A2990 RMK AO2 SLP121 T01500072 10217 20150 53017
KTCL 
41nm NE 
230053Z 21006KT 10SM CLR 15/12 A2988 RMK AO2 SLP115 T01500117
KSTF 
41nm NW 
230035Z AUTO 26006KT 10SM CLR 15/M01 A2987 RMK AO2
KCBM 
44nm N 
222356Z AUTO 20005KT 10SM CLR 15/05 A2983 RMK AO2 SLP104 T01500049 10195 20150 52013 $
TAF
KNMM 
25nm SW 
2223/2323 28006KT 9999 SKC QNH2985INS FM231500 30012G18KT 9999 SKC 510003 QNH3014INS FM232200 32006KT 9999 SKC 500000 QNH3015INS AUTOMATED SENSOR METWATCH 2305 TIL 2312 T04/2313Z T15/2321Z FN20037
NOTAMs
Click for the latest NOTAMs
NOTAMs are issued by the DoD/FAA and will open in a separate window not controlled by AirNav.

 

 
 

Would you like to see your business listed on this page?

 If your business provides an interesting product or service to pilots, flight crews, aircraft, or users of the Henley Ranch Airport, you should consider listing it here.  To start the listing process, click on the button below
 
Add a business
 

Other Pages about Henley Ranch Airport

Update a link
 
Copyright © AirNav, LLC. All rights reserved. Privacy Policy  Contact